Вернуться в каталог

METEOR 2-17 DEB

АктивенPO
NORAD 35371·DEBRIS·🇷🇺 Russia

Запущен Jan 30, 1988 с Plesetsk Cosmodrome

Loading…

Ближайшие Пролёты (ближайшие 24 часа)

TLE

УстаревающийSource: Space-Track

Эпоха: Sep 7, 2026, 01:33 UTC

1 35371U 88005AF  26250.06500279  .00001433  00000-0  86278-3 0  9999
2 35371  82.5106 162.2097 0018082 350.4280   9.6545 14.06103088672028

Отслеживайте METEOR 2-17 DEB в реальном времени с AllMySat

Download on the App Store